Location: Lancaster
(54.0470°N, 2.8020°W)
Time: 06:30:52
(UTC+00:00)

COSMOS 2428 - Visible Passes

Search period start: 21 November 2017 00:00
Search period end: 01 December 2017 00:00
Orbit: 846 x 856 km, 70.9° (Epoch: 20 November)

Date Brightness Start Highest point End Pass type
(mag) Time Alt. Az. Time Alt. Az. Time Alt. Az.
21 Nov 5.5 02:19:58 12° NE 02:19:58 12° NE 02:20:24 10° NE visible
21 Nov 3.9 04:01:59 33° NNE 04:01:59 33° NNE 04:05:09 10° NNE visible
21 Nov 4.0 05:44:00 22° NW 05:44:50 23° NNW 05:49:16 10° NNE visible
22 Nov 4.3 03:50:18 28° NNE 03:50:18 28° NNE 03:52:56 10° NNE visible
22 Nov 4.0 05:32:20 22° NNW 05:32:38 23° NNW 05:37:04 10° NNE visible
23 Nov 4.6 03:38:36 23° NNE 03:38:36 23° NNE 03:40:45 10° NNE visible
23 Nov 4.1 05:20:37 23° NNW 05:20:37 23° NNW 05:24:53 10° NNE visible
23 Nov 4.6 07:03:52 10° NW 07:06:56 14° N 07:10:00 10° NNE visible
24 Nov 4.8 03:26:50 20° NNE 03:26:50 20° NNE 03:28:32 10° NNE visible
24 Nov 4.2 05:08:51 22° NNW 05:08:51 22° NNW 05:12:40 10° NNE visible
24 Nov 4.6 06:51:40 10° NW 06:54:43 14° N 06:57:47 10° NNE visible
25 Nov 5.0 03:15:04 17° NNE 03:15:04 17° NNE 03:16:20 10° NNE visible
25 Nov 4.3 04:57:04 21° NNW 04:57:04 21° NNW 05:00:27 10° NNE visible
25 Nov 4.6 06:39:27 10° NW 06:42:31 14° N 06:45:35 10° NNE visible
26 Nov 5.2 03:03:16 15° NNE 03:03:16 15° NNE 03:04:07 10° NNE visible
26 Nov 4.4 04:45:16 20° N 04:45:16 20° N 04:48:15 10° NNE visible
26 Nov 4.7 06:27:17 10° NW 06:30:18 14° N 06:33:23 10° NNE visible
27 Nov 5.4 02:51:26 12° NNE 02:51:26 12° NNE 02:51:55 10° NNE visible
27 Nov 4.5 04:33:27 19° N 04:33:27 19° N 04:36:03 10° NNE visible
27 Nov 4.7 06:15:28 11° NNW 06:18:06 14° N 06:21:11 10° NNE visible
28 Nov 5.6 02:39:36 10° NNE 02:39:36 10° NNE 02:39:43 10° NNE visible
28 Nov 4.6 04:21:37 18° N 04:21:37 18° N 04:23:50 10° NNE visible
28 Nov 4.6 06:03:37 12° NNW 06:05:53 14° N 06:08:58 10° NNE visible
29 Nov 4.8 04:09:46 17° N 04:09:46 17° N 04:11:38 10° NNE visible
29 Nov 4.6 05:51:46 13° NNW 05:53:41 14° N 05:56:45 10° NNE visible
30 Nov 4.9 03:57:54 16° N 03:57:54 16° N 03:59:25 10° NNE visible
30 Nov 4.7 05:39:54 13° NNW 05:41:28 14° N 05:44:33 10° NNE visible
